Regional Weather Roundup
Issued by NWS New Orleans/Baton Rouge, LA

Home | Current Version | Previous Version | Graphics & Text | Print | Product List | Glossary On
Versions: 1 2 3 4 5 6 7 8 9 10 11 12 13 14 15 16 17 18 19 20 21 22 23 24 25 26 27 28 29 30 31 32 33 34 35 36 37 38 39 40 41 42 43 44 45 46 47 48 49 50
363
ASUS44 KLIX 301310
RWRLIX
NEW ORLEANS REGIONAL WEATHER ROUNDUP
NATIONAL WEATHER SERVICE NEW ORLEANS LA
800 AM CDT SAT AUG 30 2014

NOTE: "FAIR" INDICATES FEW OR NO CLOUDS BELOW 12,000 FEET WITH NO
      SIGNIFICANT WEATHER AND/OR OBSTRUCTIONS TO VISIBILITY.
      SKY/WX - SKY CONDITION AND SIGNIFICANT WEATHER.
      TMP - AIR TEMPERATURE.     DP    - DEWPOINT TEMPERATURE.
      RH  - RELATIVE HUMIDITY.   PRES  - PRESSURE.
      HI  - HEAT INDEX.          WCI   - WIND CHILL INDEX.

*  THESE STATIONS ARE NOT NWS OR FAA STATIONS AND ARE NOT UNDER
   NWS QUALITY CONTROL.

LAZ038-040-048-061>063-065>067-069-301400-
SOUTHEAST LOUISIANA

CITY           SKY/WX    TMP DP  RH WIND       PRES   REMARKS
N.O. AUDUBON     N/A     81  79  94 MISG        N/A
N.O. INTL ARPT PTSUNNY   82  77  84 SE8       30.01R
N.O. LAKEFRONT SUNNY     81  76  84 SE13      30.02R
N.O. DOWNTOWN*   N/A     81  73  78 SE5       30.02R
SLIDELL        MOSUNNY   81  75  82 SE6       30.01R
BATON ROUGE    PTSUNNY   78  76  93 E8        29.99R
BOOTHVILLE     SUNNY     83  79  88 SE7       30.02R
BELLE CHASSE   PTSUNNY   82  76  81 SE8       30.00R
BOGALUSA*        N/A     79  75  86 SE3       30.03S
GALLIANO*      NOT AVBL
NEW ROADS*     CLOUDY    78  76  94 SE6       29.98R
GONZALES*        N/A     80  80  99 E5        29.98S
HAMMOND*       PTSUNNY   81  75  83 E6        30.02S
HOUMA*         NOT AVBL
PORT FOURCHON* MOSUNNY   84  77  79 SE9G16    30.01R

$$

MSZ070-080>082-301400-
SOUTHERN MISSISSIPPI

CITY           SKY/WX    TMP DP  RH WIND       PRES   REMARKS
MCCOMB         CLOUDY    76  74  93 SE7       30.02R
GULFPORT       MOSUNNY   84  75  74 SE9       30.02S
BILOXI         SUNNY     85  75  73 SE7       30.03S
PASCAGOULA     SUNNY     82  77  84 SE6       30.04S
STENNIS ARPT*  SUNNY    N/A N/A N/A CALM      30.03R

$$

COASTAL OBSERVATIONS
LAKE AND NEARSHORE STATIONS

STATION/POSITION TIME  TEMP    WIND        PRES    WAVE
                       AIR SEA DIR/SP/G            HT/PER
                 (UTC) (F)     (DEG/KT/KT) (MB)    (FT/S)
PASCAGOULA       1300   85     140/ 10/ 12 1016.6
WAVELAND YACHT   1300   84     160/ 10/ 12 1016.0
GRAND ISLE       1300   84 83  160/  7/ 13 1016.5
SOUTHWEST PASS   1300   85 88  150/ 11/ 18 1016.6
NEW CANAL        1300   82 82  140/  4/ 11 1016.6
SHELL BEACH      1300   82 81  130/  8/ 10 1016.2

OFFSHORE STATIONS

STATION/POSITION TIME  TEMP    WIND        PRES    WAVE
                       AIR SEA DIR/SP/G            HT/PER
                 (UTC) (F)     (DEG/KT/KT) (MB)    (FT/S)
64 S DAUPHIN ISL 1300   84 84  130/ 14/ 16 1017.1

$$




USA.gov is the U.S. government's official web portal to all federal, state and local government web resources and services.